Location: Bun Machan
(52.1403°N, 7.3744°W)
Time: 08:35:58
(UTC+00:00)

SL-16 R/B - Pass Details

Date: 14 July 2020
Orbit: 839 x 850 km, 71.0° (Epoch: 04 August)

Event Time Altitude Azimuth Distance (km) Brightness Sun altitude
Rises 00:31:25 0° 252° (WSW) 3,404 5.2 -16.2°
Reaches altitude 10° 00:34:15 10° 264° (W) 2,474 4.6 -16.2°
Maximum altitude 00:39:00 27° 321° (NW) 1,593 4.2 -16.2°
Drops below altitude 10° 00:43:48 10° 18° (NNE) 2,488 5.8 -16.2°
Sets 00:46:40 0° 31° (NNE) 3,428 6.5 -16.2°
